Location: Unspecified
(0.0000°N, 0.0000°E)
Time: 13:44:23
(UTC+00:00)

Altair - Pass Details

Date: 01 November 2021
Orbit: 1502 x 1682 km, 47.2° (Epoch: 26 November)

Event Time Altitude Azimuth Distance (km) Brightness Sun altitude
Rises 22:43:54 0° 246° (WSW) 4,669 10.3 -69.1°
Enters shadow 22:44:39 - 248° (WSW) 4,457 10.2 -69.3°
Reaches altitude 10° 22:47:36 10° 258° (WSW) 3,668 - -69.8°
Maximum altitude 22:54:54 27° 311° (NW) 2,582 - -71.0°
Drops below altitude 10° 23:02:12 10° 5° (N) 3,645 - -72.1°
Sets 23:05:55 0° 18° (NNE) 4,635 - -72.6°
